Torna al catalogo

BREEZE-M DEB

LostHEO
NORAD 38633·DEBRIS·🇷🇺 Russia

Lanciato Mar 14, 2008 da Baikonur Cosmodrome

Loading…

Prossimi Passaggi (prossime 24 ore)

TLE

ObsoletoSource: Space-Track

Epoca: Oct 2, 2013, 08:11 UTC

1 38633U 08011CG  13275.34101817 -.00000208  00000-0 -23394-2 0  9991
2 38633  49.3235 210.6317 6678979 220.0269 338.6675  2.83930188 25719

Traccia BREEZE-M DEB in tempo reale con AllMySat

Download on the App Store